User: anonymous   Login
Location: Unspecified
(0.0000°N, 0.0000°E)
Time: 20:11:21
(UTC+00:00)
Language:

TBA - TO BE ASSIGNED - Orbit

View from above orbital plane
View from above orbital plane
View from above satellite
View from above satellite

Ground track
Ground track

The orbit is defined by the following mean orbital elements,

1 68184U          26145.33940208 +.00000000 +00000-0 +10014-2 0 00005
2 68184  53.1591 270.3609 0001010  78.5002 281.6116 15.39003569    00
Epoch (UTC): 25 May 2026 08:08:44
Eccentricity: 0.0001010
inclination: 53.1591°
perigee height: 448 km
apogee height: 450 km
right ascension of ascending node: 270.3609°
argument of perigee: 78.5002°
revolutions per day: 15.39003569
mean anomaly at epoch: 281.6116°

The dashed part of the orbit path shows where the satellite is in the earth's shadow,  

DLR